DECAYED
Showing default

COSMOS 1812, 17295 (Decayed)

Orbit data source: Space-Track

COSMOS 1812, 17295 was a payload satellite owned by GRU (CIS) in LEO that was launched on Wed, 14 Jan 1987 UTC via a TSIKLON-3 launch vehicle from the Plesetsk Missile And Space Complex (PKMTR). Payload-class satellites include a variety of spacecraft equipped with specific instruments for various scientific and technological missions. These include communications satellites like Starlink; space stations such as the ISS; scientific satellites like the Hubble; Earth observation satellites from companies like Planet Labs, Umbra, and HawkEye 360; GPS; miniature CubeSats for education and research; and military/defense satellites.

Not visible in the next 10 days
Identifier
17295, 1987-003A
Orbit
Decayed
Country
Flag of CISCIS
Related business
Manufacturer
Yuzhnoe
Mission
Decayed Defense Sigint
Bus & Motor
TSELINA-D, Unknown motor
Mass
1,750 kg wet, 1,750 kg dry
Launch date (UTC)
1987-01-14 (39 years ago)
Launch vehicle
TSIKLON-3
Launch site
Plesetsk Missile And Space Complex (PKMTR)
Object type
Payload
Rocket body
Debris
Shape & HBR
Cyl + 2 Pan, 6.5 m
Radar Cross Section
8.068 m², Large (>1 m²)

Expand to show TLE details & history
Last TLE update: 2 months ago

TLE from 2 months ago
0 COSMOS 1812
1 17295U 87003A   26065.13056457  .12040831 -12829-5  14059-3 0  9991
2 17295  82.4628 199.5909 0011771 272.0058  87.9898 16.49575463143916
Epoch: 2026-03-06T03:08Z
TLE epoch observation values (Epoch: 2026-03-06T03:08:00.778Z)
Latitude
-0.00005°
Longitude
-11.28333°
Altitude
143.453 km
Speed
7.82 km/s
True Right ascension
13h 18m 21s
True Declination
0° 00' 00"
Sunlit
Object was in full shadow at epoch
Visualization orbit readout
Latitude
Unknown
Longitude
Unknown
Altitude
Unknown
Speed
Unknown
Apparent Right ascension
Unknown
Apparent Declination
Unknown
Sunlit
N/A
Visualization observer readout
Local Sidereal Time
19:56:42
Azimuth
Unknown
Elevation
Unknown
Doppler factor
Unknown
Orbital elements
Apogee altitude
144.924 km
Perigee altitude
129.586 km
Semi-major axis
6,515.392 km
Eccentricity
0.00118
Inclination
82.4628°
RAAN
199.5909°
Arg. of periapsis
272.0058°
True anomaly
88.12461°
Mean anomaly
87.9898°
Eccentric anomaly
88.0572°
Mean motion
4.12698 °/min
Orbital period
87.23 mins
BSTAR
0.00014059
Loading maneuver chart data...
Computing Atmospheric mass density...
Loading historical data...
Loading historical data...
Loading historical data...
Loading historical data...
Loading historical data...
Loading historical data...
Loading historical data...
Other satellites on launch #3 in the year 1987 (1987-01-14 UTC)

Documentation

Showing up to 5 results
|